Location: Casteau
(50.5142°N, 4.0161°E)
Time: 02:18:09
(UTC+00:00)

Okean 2 - Pass Details

Date: 18 September 2020
Orbit: 559 x 577 km, 82.5° (Epoch: 24 October)

Event Time Altitude Azimuth Distance (km) Brightness Sun altitude
Rises 18:26:58 0° 349° (NNW) 2,807 7.2 -6.6°
Reaches altitude 10° 18:29:11 10° 348° (NNW) 1,902 6.4 -7.0°
Maximum altitude 18:33:23 83° 262° (W) 589 3.5 -7.6°
Drops below altitude 10° 18:37:32 10° 174° (S) 1,880 5.9 -8.3°
Sets 18:39:42 0° 174° (S) 2,770 6.7 -8.6°
